Stations météo

Publicité
Longyearbyen/Svalbard Intl, Norvège (1008): Température de l'air & dewpoint: 18.02.2019 00:00:00 - 24.02.2019 00:00:00 (CET)Longyearbyen/Svalbard Intl, Norvège (1008): Vitesse du vent & gusts: 18.02.2019 00:00:00 - 24.02.2019 00:00:00 (CET)Longyearbyen/Svalbard Intl, Norvège (1008): Direction du vent: 18.02.2019 00:00:00 - 24.02.2019 00:00:00 (CET)Longyearbyen/Svalbard Intl, Norvège (1008): reduced air pressure: 18.02.2019 00:00:00 - 24.02.2019 00:00:00 (CET)Longyearbyen/Svalbard Intl, Norvège (1008): visibility: 18.02.2019 00:00:00 - 24.02.2019 00:00:00 (CET)Longyearbyen/Svalbard Intl, Norvège (1008): Quantités de précipitations: 18.02.2019 00:00:00 - 24.02.2019 00:00:00 (CET)
Date & Time tt [°C] td [°C] ff [km/h] ff [knt] fx [km/h] fx [knt] dd ppp [hPa] vv [km] rr [mm]
24.02.2019 00:00:00 -7,3 -9,6 8 4 18 10 E 997,0 10 -
23.02.2019 23:00:00 -7,0 -9,8 9 5 24 13 WNW 997,1 10 -
23.02.2019 22:00:00 -6,4 -9,5 15 8 19 11 S 997,3 10 -
23.02.2019 21:00:00 -6,4 -9,8 13 7 21 12 SSW 997,3 10 -
23.02.2019 20:00:00 -6,3 -9,9 16 9 27 14 SW 997,5 10 -
23.02.2019 19:00:00 -6,2 -9,6 22 12 - - SW 997,5 10 -
23.02.2019 18:00:00 -6,2 -9,5 15 8 29 15 SW 997,0 10 -
23.02.2019 17:00:00 -6,0 -9,6 21 11 - - SW 996,9 10 -
23.02.2019 16:00:00 -6,1 -9,5 24 13 38 21 SSW 996,5 10 -
23.02.2019 15:00:00 -6,2 -9,6 24 13 36 20 SW 996,0 10 -
23.02.2019 14:00:00 -5,8 -9,1 21 11 45 24 SW 995,6 10 -
23.02.2019 13:00:00 -5,6 -8,2 29 16 - - WSW 994,8 10 -
23.02.2019 12:00:00 -5,3 -7,6 26 14 45 24 WSW 994,2 8 -
23.02.2019 11:00:00 -5,6 -8,3 35 19 48 26 WSW 993,6 10 -
23.02.2019 10:00:00 -5,4 -8,3 41 22 50 27 WSW 992,5 10 -
23.02.2019 09:00:00 -4,6 -6,9 42 23 54 29 WSW 991,8 7 -
23.02.2019 08:00:00 -4,1 -7,6 21 11 44 24 SW 990,2 10 -
23.02.2019 07:00:00 -3,3 -6,1 16 9 - - WNW 989,5 10 0,0
23.02.2019 06:00:00 -2,3 -5,1 15 8 24 13 NW 988,1 10 -
23.02.2019 05:00:00 -2,3 -4,5 13 7 18 10 WNW 987,1 10 -
23.02.2019 04:00:00 -1,1 -3,6 22 12 35 19 WSW 986,1 10 -
23.02.2019 03:00:00 -0,5 -3,3 26 14 36 20 SW 985,2 10 -
23.02.2019 02:00:00 -0,2 -3,2 24 13 37 20 SW 984,5 10 -
23.02.2019 01:00:00 0,5 -2,0 26 14 - - WSW 984,1 10 -
23.02.2019 00:00:00 1,0 -2,0 31 17 45 24 SW 983,6 10 -
22.02.2019 23:00:00 1,0 -1,5 35 19 59 32 WSW 983,0 10 -
22.02.2019 22:00:00 1,2 -1,5 39 21 65 35 SW 982,4 10 -
22.02.2019 21:00:00 1,2 -0,7 35 19 55 30 SW 982,0 10 -
22.02.2019 20:00:00 1,1 -0,7 31 17 57 31 SW 981,6 - -
22.02.2019 19:00:00 1,4 -0,5 34 18 - - SW 981,4 6 -
22.02.2019 18:00:00 1,6 -0,5 22 12 39 21 SW 981,1 5 -
22.02.2019 17:00:00 -0,7 -1,2 10 5 26 14 E 981,5 8 -
22.02.2019 16:00:00 -1,2 -1,8 15 8 19 10 ESE 981,6 3,5 -
22.02.2019 15:00:00 -0,8 -1,9 15 8 23 12 ESE 981,5 10 -
22.02.2019 14:00:00 0,0 -1,5 13 7 32 17 SSE 981,9 10 -
22.02.2019 13:00:00 -0,4 -1,5 18 10 - - ESE 982,9 10 -
22.02.2019 12:00:00 0,1 -2,4 24 13 30 16 SE 984,5 10 -
22.02.2019 11:00:00 0,4 -2,8 13 7 28 15 S 986,2 10 -
22.02.2019 10:00:00 0,4 -2,3 10 5 32 18 ESE 988,2 12 -
22.02.2019 09:00:00 1,0 -2,2 11 6 37 20 WSW 990,4 10 -
22.02.2019 08:00:00 0,8 -2,4 24 13 55 30 SW 991,9 10 -
22.02.2019 07:00:00 0,7 -2,2 37 20 - - SW 993,1 8 0,0
22.02.2019 06:00:00 0,6 -2,1 41 22 62 33 SW 994,6 5 -
22.02.2019 05:00:00 0,2 -2,0 41 22 68 37 SW 996,3 3,0 -
22.02.2019 04:00:00 0,1 -1,8 34 18 66 35 SW 997,2 1,0 -
22.02.2019 03:00:00 0,0 -1,5 46 25 68 37 SW 997,5 1,5 -
22.02.2019 02:00:00 -0,1 -1,6 42 23 86 47 SW 998,3 1,5 -
22.02.2019 01:00:00 -0,3 -1,7 40 22 - - SW 998,9 0,2 -
22.02.2019 00:00:00 0,0 -1,7 54 29 83 45 SW 999,3 1,2 -
21.02.2019 23:00:00 -0,4 -1,9 37 20 77 41 SW 999,7 1,0 -
21.02.2019 22:00:00 -0,8 -2,3 52 28 81 44 SW 1000,3 1,5 -
21.02.2019 21:00:00 -0,5 -2,9 39 21 78 42 SSW 1000,8 2,0 -
21.02.2019 20:00:00 -1,2 -3,0 44 24 65 35 SW 1002,1 1,8 -
21.02.2019 19:00:00 -1,6 -5,3 34 18 - - SSW 1002,7 4,0 -
21.02.2019 18:00:00 -2,4 -6,1 35 19 51 28 SSW 1003,2 10 -
21.02.2019 17:00:00 -3,2 -6,7 39 21 51 28 SW 1004,6 8 -
21.02.2019 16:00:00 -4,4 -7,9 34 18 49 27 SW 1005,5 4,0 -
21.02.2019 15:00:00 -5,1 -9,0 29 16 51 27 SW 1006,1 9 -
21.02.2019 14:00:00 -5,8 -9,7 29 16 41 22 SW 1006,6 3,5 -
21.02.2019 13:00:00 -6,5 -10,9 28 15 - - SW 1007,2 12 -
21.02.2019 12:00:00 -6,6 -10,2 0 0 34 18 N 1006,8 10 -
21.02.2019 11:00:00 -10,7 -13,0 21 11 27 15 ESE 1006,5 10 -
21.02.2019 10:00:00 -10,4 -13,0 16 9 21 11 ESE 1006,5 10 -
21.02.2019 09:00:00 -11,9 -14,3 12 7 22 12 E 1006,8 - -
21.02.2019 08:00:00 -12,1 -14,5 11 6 19 10 SE 1006,4 10 -
21.02.2019 07:00:00 -12,0 -14,9 13 7 - - ESE 1006,5 10 0,0
21.02.2019 06:00:00 -13,5 -15,8 11 6 18 10 ESE 1006,1 10 -
21.02.2019 05:00:00 -12,7 -15,1 0 0 15 8 N 1005,3 10 -
21.02.2019 04:00:00 -12,4 -15,1 8 4 11 6 S 1004,9 10 -
21.02.2019 03:00:00 -12,8 -15,4 2 1 12 6 - 1004,7 10 -
21.02.2019 02:00:00 -12,6 -15,0 15 8 18 10 ESE 1004,1 10 -
21.02.2019 01:00:00 -12,5 -14,8 5 3 - - SSW 1003,8 10 -
21.02.2019 00:00:00 -11,3 -13,6 4 2 8 4 - 1003,6 10 -
20.02.2019 23:00:00 -11,9 -14,8 2 1 8 5 SSE 1003,2 10 -
20.02.2019 22:00:00 -12,7 -16,3 8 4 14 7 SE 1003,2 30 -
20.02.2019 21:00:00 -13,0 -15,8 7 4 20 11 ENE 1003,1 10 -
20.02.2019 20:00:00 -13,1 -15,9 18 10 25 13 E 1003,2 10 -
20.02.2019 19:00:00 -12,5 -14,8 16 9 - - ESE 1003,5 25 -
20.02.2019 18:00:00 -13,3 -16,1 15 8 32 17 ESE 1003,9 10 -
20.02.2019 17:00:00 -14,4 -18,1 29 16 35 19 E 1004,2 10 -
20.02.2019 16:00:00 -15,2 -19,3 22 12 24 13 E 1005,3 40 -
20.02.2019 15:00:00 -15,5 -19,6 12 6 22 12 SE 1006,0 10 -
20.02.2019 14:00:00 -14,9 -18,4 11 6 22 12 SE 1006,7 10 -
20.02.2019 13:00:00 -15,6 -19,4 5 3 - - - 1007,1 10 -
20.02.2019 12:00:00 -15,9 -20,1 8 4 10 5 SSE 1007,4 10 -
20.02.2019 11:00:00 -15,2 -20,3 8 4 11 6 SSW 1007,5 10 -
20.02.2019 10:00:00 -14,6 -19,4 4 2 22 12 - 1007,3 10 -
20.02.2019 09:00:00 -15,3 -20,2 4 2 22 12 - 1007,1 10 -
20.02.2019 08:00:00 -15,5 -19,6 16 9 29 15 WNW 1007,2 10 -
20.02.2019 07:00:00 -15,3 -18,7 15 8 - - WSW 1007,0 10 0,0
20.02.2019 06:00:00 -15,0 -19,0 7 4 18 10 ESE 1007,0 - -
20.02.2019 05:00:00 -17,3 -19,6 16 9 27 14 WNW 1007,0 10 -
20.02.2019 04:00:00 -16,4 -19,2 22 12 29 16 WNW 1006,6 10 -
20.02.2019 03:00:00 -17,0 -20,2 8 4 18 10 E 1006,4 8 -
20.02.2019 02:00:00 -17,1 -20,8 4 2 14 7 - 1006,5 10 -
20.02.2019 01:00:00 -17,6 -21,0 8 4 - - SE 1006,7 10 -
20.02.2019 00:00:00 -18,1 -22,0 11 6 16 9 ESE 1006,8 10 -
19.02.2019 23:00:00 -18,9 -22,5 8 4 14 8 ESE 1006,8 10 -
19.02.2019 22:00:00 -19,3 -22,4 5 3 19 11 - 1006,5 10 -
19.02.2019 21:00:00 -18,9 -23,2 9 5 19 10 NNW 1006,3 10 -
19.02.2019 20:00:00 -19,2 -22,2 9 5 18 10 NNW 1006,1 10 -
19.02.2019 19:00:00 -18,1 -23,1 10 5 - - NNW 1006,0 40 -
19.02.2019 18:00:00 -18,6 -22,9 9 5 22 12 NW 1005,9 10 -
19.02.2019 17:00:00 -18,3 -22,6 10 6 19 10 NW 1006,0 8 -
19.02.2019 16:00:00 -18,5 -22,8 15 8 24 13 NW 1006,1 10 -
19.02.2019 15:00:00 -18,8 -22,3 15 8 26 14 NW 1006,1 10 -
19.02.2019 14:00:00 -19,4 -23,4 11 6 23 12 NNW 1006,3 10 -
19.02.2019 13:00:00 -19,3 -23,9 15 8 - - NW 1006,6 10 -
19.02.2019 12:00:00 -19,5 -23,9 16 9 29 16 NNW 1006,7 10 -
19.02.2019 11:00:00 -19,7 -24,4 15 8 24 13 NW 1007,1 10 -
19.02.2019 10:00:00 -20,0 -24,3 16 9 29 16 NW 1007,2 10 -
19.02.2019 09:00:00 -20,3 -24,6 18 10 32 17 NW 1007,5 10 -
19.02.2019 08:00:00 -20,1 -23,9 15 8 31 17 NNW 1007,5 10 -
19.02.2019 07:00:00 -21,8 -24,2 9 5 - - ESE 1007,9 9 0,0
19.02.2019 06:00:00 -22,6 -25,2 16 9 20 11 ESE 1008,2 8 -
19.02.2019 05:00:00 -22,9 -26,1 15 8 23 13 ESE 1008,7 8 -
19.02.2019 04:00:00 -23,5 -27,5 21 11 27 15 ESE 1009,2 10 -
19.02.2019 03:00:00 -23,7 -28,1 21 11 27 14 ESE 1009,8 10 -
19.02.2019 02:00:00 -24,0 -29,1 22 12 30 16 ESE 1010,4 10 -
19.02.2019 01:00:00 -24,5 -29,1 16 8 - - ESE 1010,8 55 -
19.02.2019 00:00:00 -23,6 -27,0 16 9 24 13 ESE 1011,3 10 -
18.02.2019 23:00:00 -23,4 -28,6 21 11 25 14 SE 1011,5 10 -
18.02.2019 22:00:00 -24,0 -29,4 21 11 25 14 ESE 1011,8 10 -
18.02.2019 21:00:00 -24,3 -28,6 21 11 25 13 ESE 1012,2 10 -
18.02.2019 20:00:00 -23,6 -28,5 18 10 27 15 ESE 1012,5 10 -
18.02.2019 19:00:00 -23,9 -28,5 18 10 - - ESE 1012,7 55 -
18.02.2019 18:00:00 -23,7 -26,5 18 10 29 15 ESE 1012,9 10 -
18.02.2019 17:00:00 -23,9 -26,3 21 11 25 14 ESE 1013,3 10 -
18.02.2019 16:00:00 -24,3 -28,9 21 11 29 16 ESE 1013,7 10 -
18.02.2019 15:00:00 -24,5 -28,0 26 14 29 16 ESE 1014,2 10 -
18.02.2019 14:00:00 -24,5 -27,8 22 12 29 16 ESE 1014,6 10 -
18.02.2019 13:00:00 -24,1 -26,5 21 11 - - ESE 1015,1 6 -
18.02.2019 12:00:00 -24,0 -28,9 26 14 31 17 ESE 1015,3 10 -
18.02.2019 11:00:00 -23,7 -26,8 21 11 29 16 ESE 1015,5 10 -
18.02.2019 10:00:00 -22,9 -25,9 18 10 26 14 ESE 1015,6 10 -
18.02.2019 09:00:00 -22,6 -25,0 11 6 24 13 ESE 1015,7 5 -
18.02.2019 08:00:00 -22,5 -25,3 11 6 24 13 SE 1016,2 2,8 -
18.02.2019 07:00:00 -22,9 -25,8 18 10 - - ESE 1016,4 8 0,0
18.02.2019 06:00:00 -21,9 -24,7 9 5 19 10 SE 1016,6 9 -
18.02.2019 05:00:00 -21,8 -24,6 8 4 24 13 ESE 1016,9 - -
18.02.2019 04:00:00 -21,4 -26,6 16 9 31 17 N 1017,2 10 -
18.02.2019 03:00:00 -21,2 -27,4 16 9 31 17 N 1017,5 10 -
18.02.2019 02:00:00 -20,7 -25,6 18 10 29 16 N 1017,7 10 -
18.02.2019 01:00:00 -20,9 -24,8 11 6 - - NNW 1017,9 10 -
18.02.2019 00:00:00 -20,9 -25,4 15 8 29 16 NNW 1018,1 10 -

tt = Température de l'air
td = dewpoint
ff = Vitesse du vent
fx = gusts
dd = Direction du vent
ppp = reduced air pressure
vv = visibility
rr = Quantités de précipitations

stations d'obs. à proximité